Погода в Санадже

Великобритания     50°36′34″N   1°57′20″W
темп.,
°C
ветер,
м/с
пор.,
м/с
влажн.,
%
обл.,
%
осадки,
мм/ч
давл.,
гПа
погр.,
м
8 марта, пн
пн800:00+5ссв446810 0.0 1026521
03:00+3с34740 0.0 1025216
06:00+4с33730 0.0 1025206
09:00+4ссв33800 0.0 1025240
12:00+4ю11780 0.0 1025170
15:00+6зюз447949 0.0 1024279
18:00+7зсз567958 0.0 1023328
21:00+6ссз45780 0.0 1024252
9 марта, вт
вт900:00+6ссз467518 0.0 1023257
03:00+5сз44760 0.0 1022204
06:00+6зсз45750 0.0 1023320
09:00+6з45760 0.0 1023402
12:00+7зюз67740 0.0 1022526
15:00+7зюз787815 0.0 1021605
18:00+7юз897957 0.0 1020689
21:00+8юз81177100 0.0 1019741
10 марта, ср
ср1000:00+8юз111381100 0.0 1018910
03:00+8ююз121573100 0.0 1016871
06:00+8ююз131682100 0.3 1014922
09:00+8ююз151889100 2.1 1013878
12:00+8ююз151990100 4.1 1012799
15:00+9ююз152091100 2.6 1009629
18:00+10ююз142093100 3.9 1006519
21:00+10юз152296100 0.8 1004468
11 марта, чт
чт1100:00+10юз182693100 1.7 1001613
03:00+10зюз152389100 0.5 999785
06:00+10зюз18257694 0.8 10001286
09:00+9зюз16227443 0.1 10021284
12:00+9зюз16207255 0.4 10031235
15:00+9зюз162168100 0.4 10041552
18:00+9з15206874 0.6 10061568
21:00+8з1216710 0.0 10101237
12 марта, пт
пт1200:00+8зюз11157214 0.0 10111139
03:00+8зюз12167448 0.1 10101175
06:00+9зюз13187674 0.4 10081149
09:00+7з111481100 1.6 10091095
12:00+8з111571100 1.8 10101323
15:00+8зюз11147287 0.1 10101150
18:00+8з12157694 0.3 10101217
21:00+8зюз111579100 0.1 1010990